User: anonymous   Login
Location: Unspecified
(0.0000°N, 0.0000°E)
Time: 08:44:31
(UTC+02:00)
Language:

Cosmos 773 Rocket - Orbit

View from above orbital plane
View from above orbital plane
View from above satellite
View from above satellite

Ground track
Ground track

The orbit data is extracted from the following two-line orbital elements,

1  8344U 75094B   17147.55108225 +.00000058 +00000-0 +27237-4 0  9990
2  8344 074.0552 163.6546 0020654 068.8332 291.5027 14.39093751182450
Epoch (UTC): 27 May 2017 13:13:33
Eccentricity: 0.0020654
inclination: 74.0552°
perigee height: 747 km
apogee height: 776 km
right ascension of ascending node: 163.6546°
argument of perigee: 68.8332°
revolutions per day: 14.39093751
mean anomaly at epoch: 291.5027°
orbit number at epoch: 18245

The dashed part of the orbit path shows where the satellite is in the earth's shadow,  

DLR